{"data":{"norad_id":66200,"intl_designator":"2025-243Z","name":"STARLINK-35551","alt_names":[],"object_type":"PAYLOAD","status":"ACTIVE","operator":null,"country":"US","launch_date":"2025-10-26","launch_site_code":"AFETR","launch_vehicle":null,"mission":null,"orbit_class":"UNKNOWN","rcs_meters":null,"size_class":null,"mass_kg":null,"dimensions":null,"purposes":["comms"],"wikipedia_slug":null,"has_3d_model":false,"image_url":null,"decayed_at":null,"tle_current":{"epoch":"2026-09-20T21:21:37.124928Z","epoch_age_seconds":66749,"freshness":"FRESH","line1":"1 66200U 25243Z   26263.89001302  .00013040  00000+0  39636-3 0  9999","line2":"2 66200  53.1583  57.5846 0001768 103.6102 256.5098 15.34403828 50559","mean_motion":15.34403828,"eccentricity":0.0001768,"inclination_deg":53.1583,"raan_deg":57.5846,"arg_perigee_deg":103.6102,"mean_anomaly_deg":256.5098,"bstar":0.00039636,"rev_number":5055,"period_min":93.847523951824,"perigee_km":461.48240406514,"apogee_km":463.90132115095,"semimajor_km":6840.828862608,"source":"CELESTRAK","updated_at":"2026-09-21T09:00:35.838420Z"}}}